(199556) = 2002 PH6 = 2006 EF27

Discovered at Socorro on 2006-03-03 by LINEAR.

Orbit

Orbit type: Main Belt

Note: WebGL enabled browser required.

epoch2023-09-13.0
epoch JD2460200.5
perihelion date2018-01-24.67568
perihelion JD2458143.17568
argument of perihelion (°)297.12049
ascending node (°)260.62947
inclination (°)3.76642
eccentricity0.1127294
perihelion distance (AU)2.8556945
Tisserand w.r.t. Jupiter3.2
ΔV w.r.t. Earth (km/sec)10.6
semimajor axis (AU)3.2185159
mean anomaly (°)351.17461
mean daily motion (°/day)0.17069480
aphelion distance (AU)3.581
period (years)5.77
P-vector [x]-0.95049927
P-vector [y]-0.25673748
P-vector [z]-0.17503428
Q-vector [x]0.30389221
Q-vector [y]-0.88557068
Q-vector [z]-0.35130341
absolute magnitude15.21
phase slope0.15
uncertainty0
referenceMPEC 2023-X02
observations used599
oppositions18
arc length (days)8415
first opposition used2000
last opposition used2023
residual rms (arc-secs)0.74
perturbers coarse indicatorM-v
perturbers precise indicator003Ek
first observation date used2000-03-11.0
last observation date used2023-03-26.0
computer nameMPCLINUX
JD of orbit computation2456966.779657
perihelion JD uncertainty (days)9.9121E-05
argument of perihelion uncertainty (°)9.1411E-05
ascending node uncertainty (°)8.9871E-05
inclination uncertainty (°)3.4442E-06
eccentricity uncertainty 5.8949E-08
perihelion distance uncertainty (AU)1.7694E-07
Minimum Orbit Intersection Distances (in AU)
for orbit epoch: 2460200.5, reference: E2023-X02
Mercury2.42786
Venus2.13986
Earth1.85511
Mars1.23164
Jupiter1.41175
Saturn5.64772
Uranus15.5197
Neptune26.2752

Observations

616 total observations over interval: 2000 03 11.22943 – 2023 03 26.275870
These data are available for download (format description).

Date (UT) J2000 RA J2000 Dec Magn Location Ref
2000 03 11.22943 09 54 53.78 +07 02 15.0 18.7 R 699 – Lowell Observatory-LONEOS MPS 178594
2000 03 11.25304 09 54 52.83 +07 02 21.3   699 – Lowell Observatory-LONEOS MPS 178594
2000 03 11.27660 09 54 51.90 +07 02 26.5   699 – Lowell Observatory-LONEOS MPS 178594
2000 03 11.30025 09 54 51.04 +07 02 31.3   699 – Lowell Observatory-LONEOS MPS 178594
2002 08 02.95194 21 59 27.90 -07 16 12.5 19.0 R 599 – Campo Imperatore-CINEOS MPS 60128
2002 08 02.96687 21 59 27.30 -07 16 15.3 19.3 R 599 – Campo Imperatore-CINEOS MPS 60128
2002 08 02.98144 21 59 26.72 -07 16 17.4 19.2 R 599 – Campo Imperatore-CINEOS MPS 60128
2002 08 05.96385 21 57 25.71 -07 24 37.2 19.1 R 599 – Campo Imperatore-CINEOS MPS 60128
2002 08 05.97846 21 57 25.12 -07 24 39.6 19.5 R 599 – Campo Imperatore-CINEOS MPS 60128
2002 08 05.99307 21 57 24.47 -07 24 42.9 19.5 R 599 – Campo Imperatore-CINEOS MPS 60128
2002 08 17.22108 21 49 19.87 -08 00 59.6 19.9   644 – Palomar Mountain/NEAT MPS 178594
2002 08 17.28902 21 49 16.78 -08 01 13.8 19.9   644 – Palomar Mountain/NEAT MPS 178594
2002 08 17.35106 21 49 13.96 -08 01 27.1 19.9   644 – Palomar Mountain/NEAT MPS 178594
2003 09 29.41653 01 51 29.42 +15 58 34.2 20.8 V 691 – Steward Observatory, Kitt Peak-Spacewatch MPS 178594
2003 09 29.44508 01 51 28.34 +15 58 28.8 21.1 V 691 – Steward Observatory, Kitt Peak-Spacewatch MPS 178594
2003 09 29.47291 01 51 27.32 +15 58 23.6 20.9 V 691 – Steward Observatory, Kitt Peak-Spacewatch MPS 178594
2003 10 17.20995 01 39 21.69 +14 50 06.2 20.7 V 691 – Steward Observatory, Kitt Peak-Spacewatch MPS 212436
2003 10 17.24684 01 39 20.04 +14 49 56.5 20.6 V 691 – Steward Observatory, Kitt Peak-Spacewatch MPS 212436
2003 10 17.27589 01 39 18.73 +14 49 48.9 20.8 V 691 – Steward Observatory, Kitt Peak-Spacewatch MPS 212436
2003 10 25.26059 01 33 28.66 +14 12 41.3 19.4   704 – Lincoln Laboratory ETS, New Mexico MPS 212436
2003 10 25.27263 01 33 28.17 +14 12 37.2 19.9   704 – Lincoln Laboratory ETS, New Mexico MPS 212436
2003 10 25.28507 01 33 27.56 +14 12 32.0 20.4   704 – Lincoln Laboratory ETS, New Mexico MPS 212436
2003 10 25.29746 01 33 27.07 +14 12 30.8 20.4   704 – Lincoln Laboratory ETS, New Mexico MPS 212436
2003 10 25.30972 01 33 26.49 +14 12 26.8 20.2   704 – Lincoln Laboratory ETS, New Mexico MPS 212436
2004 12 09.35108 06 10 14.88 +22 45 27.9 20.2 V 691 – Steward Observatory, Kitt Peak-Spacewatch MPS 178594
2004 12 09.38285 06 10 13.22 +22 45 26.7 20.8 V 691 – Steward Observatory, Kitt Peak-Spacewatch MPS 178594
2004 12 09.41042 06 10 11.91 +22 45 25.3 20.2 V 691 – Steward Observatory, Kitt Peak-Spacewatch MPS 178594
2006 01 06.480526 11 42 24.243 -02 51 04.23 20.48 V 645 – Apache Point-Sloan Digital Sky Survey MPS 390241
2006 01 06.483998 11 42 24.313 -02 51 05.04 21.20   645 – Apache Point-Sloan Digital Sky Survey MPS 390241
2006 03 03.24215 11 29 05.92 -02 48 38.3 19.3   704 – Lincoln Laboratory ETS, New Mexico MPS 166411
2006 03 03.26746 11 29 04.75 -02 48 31.8 18.7   704 – Lincoln Laboratory ETS, New Mexico MPS 166411
2006 03 03.27976 11 29 04.20 -02 48 29.5 19.2   704 – Lincoln Laboratory ETS, New Mexico MPS 166411
2006 03 05.28496 11 27 37.79 -02 40 18.7 19.5 V 691 – Steward Observatory, Kitt Peak-Spacewatch MPS 166411
2006 03 05.30237 11 27 36.99 -02 40 14.4 19.6 V 691 – Steward Observatory, Kitt Peak-Spacewatch MPS 166411
2006 03 05.31978 11 27 36.21 -02 40 10.0 19.4 V 691 – Steward Observatory, Kitt Peak-Spacewatch MPS 166411
2006 03 24.25200 11 13 49.97 -01 10 42.4 18.8 R 699 – Lowell Observatory-LONEOS MPS 178594
2006 03 24.27386 11 13 49.09 -01 10 36.4   699 – Lowell Observatory-LONEOS MPS 178594
2006 03 24.29579 11 13 48.11 -01 10 30.0   699 – Lowell Observatory-LONEOS MPS 178594
2006 03 24.31769 11 13 47.24 -01 10 23.2   699 – Lowell Observatory-LONEOS MPS 178594
2006 03 25.26356 11 13 09.10 -01 05 42.6 19.2 R 644 – Palomar Mountain/NEAT MPS 167216
2006 03 25.28530 11 13 08.19 -01 05 36.4 19.3 R 644 – Palomar Mountain/NEAT MPS 167216
2006 03 25.30578 11 13 07.33 -01 05 30.2 19.4 R 644 – Palomar Mountain/NEAT MPS 167216
2006 03 29.19246 11 10 36.99 -00 46 32.4 18.5   704 – Lincoln Laboratory ETS, New Mexico MPS 167216
2006 03 29.21719 11 10 35.99 -00 46 24.3 19.4   704 – Lincoln Laboratory ETS, New Mexico MPS 167216
2006 03 29.22956 11 10 35.61 -00 46 22.1 19.4   704 – Lincoln Laboratory ETS, New Mexico MPS 167216
2006 03 29.24172 11 10 35.01 -00 46 17.0 19.4   704 – Lincoln Laboratory ETS, New Mexico MPS 167216
2008 09 09.27200 22 35 23.64 -03 16 45.0 20.0 V G96 – Mt. Lemmon Survey MPS 255898
2008 09 09.27836 22 35 23.38 -03 16 46.7 19.9 V G96 – Mt. Lemmon Survey MPS 255898
2008 09 09.28472 22 35 23.10 -03 16 48.4 19.8 V G96 – Mt. Lemmon Survey MPS 255898
2008 09 09.29112 22 35 22.84 -03 16 50.1 20.0 V G96 – Mt. Lemmon Survey MPS 255898
2008 09 22.21109 22 27 10.87 -04 11 18.6 20.0 V G96 – Mt. Lemmon Survey MPS 256751
2008 09 22.21994 22 27 10.54 -04 11 20.6 20.2 V G96 – Mt. Lemmon Survey MPS 256751
2008 09 22.22875 22 27 10.22 -04 11 22.6 20.0 V G96 – Mt. Lemmon Survey MPS 256751
2008 09 22.23766 22 27 09.93 -04 11 25.0 20.1 V G96 – Mt. Lemmon Survey MPS 256752
2009 10 25.20429 02 32 56.63 +18 40 22.9   691 – Steward Observatory, Kitt Peak-Spacewatch MPS 301889
2009 10 25.22147 02 32 55.85 +18 40 18.9   691 – Steward Observatory, Kitt Peak-Spacewatch MPS 301889
2009 10 25.24209 02 32 54.89 +18 40 14.2   691 – Steward Observatory, Kitt Peak-Spacewatch MPS 301889
2009 11 17.26918 02 15 50.04 +17 01 06.5 20.2 V G96 – Mt. Lemmon Survey MPS 304648
2009 11 17.27559 02 15 49.78 +17 01 04.6 20.3 V G96 – Mt. Lemmon Survey MPS 304648
2009 11 17.28222 02 15 49.50 +17 01 03.0 20.0 V G96 – Mt. Lemmon Survey MPS 304648
2009 11 17.28878 02 15 49.24 +17 01 01.2 19.9 V G96 – Mt. Lemmon Survey MPS 304648
2010 10 12.45029 07 21 23.61 +21 23 44.4 20.9 V 691 – Steward Observatory, Kitt Peak-Spacewatch MPS 353498
2010 10 12.46901 07 21 24.34 +21 23 41.6 21.2 V 691 – Steward Observatory, Kitt Peak-Spacewatch MPS 353498
2010 10 12.48772 07 21 25.08 +21 23 39.5 21.4 V 691 – Steward Observatory, Kitt Peak-Spacewatch MPS 353498
2010 11 07.45401 07 32 58.70 +20 34 09.5 20.4 V G96 – Mt. Lemmon Survey MPS 357223
2010 11 07.46037 07 32 58.77 +20 34 09.1 20.7 V G96 – Mt. Lemmon Survey MPS 357223
2010 11 07.46669 07 32 58.81 +20 34 08.2 20.8 V G96 – Mt. Lemmon Survey MPS 357223
2010 11 07.47310 07 32 58.88 +20 34 07.7 20.7 V G96 – Mt. Lemmon Survey MPS 357223
2010 12 02.33019 07 30 33.19 +20 10 19.7 20.3 V 691 – Steward Observatory, Kitt Peak-Spacewatch MPS 362423
2010 12 02.35106 07 30 32.68 +20 10 19.4 20.1 V 691 – Steward Observatory, Kitt Peak-Spacewatch MPS 362423
2010 12 02.37198 07 30 32.15 +20 10 19.0 20.2 V 691 – Steward Observatory, Kitt Peak-Spacewatch MPS 362423
2011 01 02.28006 07 09 47.41 +20 14 47.4 19.3 V G96 – Mt. Lemmon Survey MPS 365193
2011 01 02.29043 07 09 46.83 +20 14 47.7 19.4 V G96 – Mt. Lemmon Survey MPS 365193
2011 01 02.30083 07 09 46.29 +20 14 47.8 19.4 V G96 – Mt. Lemmon Survey MPS 365193
2011 01 02.31127 07 09 45.72 +20 14 48.2 19.6 V G96 – Mt. Lemmon Survey MPS 365193
2011 12 05.61597 12 20 18.496 -05 57 20.98 21.2 w F51 – Pan-STARRS 1, Haleakala MPS 404170
2011 12 05.61997 12 20 18.763 -05 57 23.07 21.1 w F51 – Pan-STARRS 1, Haleakala MPS 404170
2011 12 05.62393 12 20 19.029 -05 57 24.93 21.1 w F51 – Pan-STARRS 1, Haleakala MPS 404170
2011 12 05.62792 12 20 19.300 -05 57 27.09 21.3 w F51 – Pan-STARRS 1, Haleakala MPS 404170
2012 01 24.65351 13 02 27.550 -11 21 46.46 20.3 z F51 – Pan-STARRS 1, Haleakala MPS 409915
2012 01 24.66232 13 02 27.791 -11 21 48.73 20.4 z F51 – Pan-STARRS 1, Haleakala MPS 409915
2012 03 01.42700 13 05 06.97 -12 26 37.5 19.6 V G96 – Mt. Lemmon Survey MPS 415852
2012 03 01.43529 13 05 06.75 -12 26 37.1 19.7 V G96 – Mt. Lemmon Survey MPS 415852
2012 03 01.44370 13 05 06.57 -12 26 36.3 19.6 V G96 – Mt. Lemmon Survey MPS 415852
2012 03 01.45185 13 05 06.43 -12 26 36.0 19.7 V G96 – Mt. Lemmon Survey MPS 415852
2012 03 15.26864 12 58 35.28 -11 58 10.8 19.4 V 691 – Steward Observatory, Kitt Peak-Spacewatch MPS 417013
2012 03 15.28641 12 58 34.59 -11 58 07.0 19.5 V 691 – Steward Observatory, Kitt Peak-Spacewatch MPS 417013
